VE2JJ-13 Weather Reports


time (UTC)temp
C
wind
direction
speed
KPH
gust
KPH
rain 1hr
cm
rain 24hr
cm
rain mn
cm
humidity
%
barometer
mb
20260504081654 5 177 0.0 0.0 0.00 0.00 0.00 78 998.3
20260504081152 5 96 0.0 0.0 0.00 0.00 0.00 78 998.3
20260504080652 5 101 0.0 0.0 0.00 0.00 0.00 77 998.3
20260504080152 5 112 0.0 0.0 0.00 0.00 0.00 77 998.2
20260504070324 5 112 4.8 3.2 0.00 0.00 0.00 71 998.3
20260504060225 6 90 0.0 0.0 0.00 0.00 0.00 65 998.7
20260504050453 5 103 0.0 0.0 0.00 0.00 0.00 62 999.0
20260504045923 5 117 0.0 0.0 0.00 0.00 0.00 63 999.0
20260504045423 5 104 0.0 0.0 0.00 0.00 0.00 61 999.0
20260504044853 5 112 0.0 0.0 0.00 0.00 0.00 61 999.0
20260504044352 5 118 0.0 0.0 0.00 0.00 0.00 61 999.0
20260504043822 5 112 0.0 0.0 0.00 0.00 0.00 61 999.2
20260504043322 5 95 0.0 0.0 0.00 0.00 0.00 62 999.2
20260504042252 5 153 0.0 0.0 0.00 0.00 0.00 61 999.1
20260504041723 5 111 0.0 0.0 0.00 0.00 0.00 61 999.1
20260504041226 5 72 0.0 0.0 0.00 0.00 0.00 61 999.1
20260504040653 5 100 0.0 0.0 0.00 0.00 0.00 61 999.1
20260504040153 5 112 0.0 0.0 0.00 0.00 0.00 61 999.0
20260504035653 5 64 0.0 0.0 0.00 0.00 0.00 61 999.0
20260504035153 5 102 0.0 0.0 0.00 0.00 0.00 61 999.2
20260504034622 5 88 0.0 0.0 0.00 0.00 0.00 62 999.2
20260504034122 5 104 0.0 0.0 0.00 0.00 0.00 64 999.2
20260504033622 5 87 0.0 0.0 0.00 0.00 0.00 64 999.2
20260504033121 5 68 0.0 0.0 0.00 0.00 0.00 62 999.2
20260504032553 6 90 0.0 0.0 0.00 0.00 0.00 60 999.3
20260504032021 6 92 0.0 0.0 0.00 0.00 0.00 60 999.3
20260504031522 6 90 0.0 0.0 0.00 0.00 0.00 59 999.4
20260504031024 6 105 0.0 0.0 0.00 0.00 0.00 59 999.4
20260504030453 6 107 0.0 0.0 0.00 0.00 0.00 59 999.5
20260504025922 6 111 0.0 0.0 0.00 0.00 0.00 58 999.5
20260504025423 7 130 0.0 0.0 0.00 0.00 0.00 58 999.5
20260504024852 7 122 0.0 0.0 0.00 0.00 0.00 57 999.5
20260504024352 7 207 1.6 0.0 0.00 0.00 0.00 56 999.5
20260504023821 7 129 4.8 8.0 0.00 0.00 0.00 57 999.5
20260504023323 7 104 0.0 0.0 0.00 0.00 0.00 57 999.5
20260504022821 7 131 3.2 3.2 0.00 0.00 0.00 55 999.6
20260504022322 7 164 0.0 0.0 0.00 0.00 0.00 56 999.6
20260504021754 8 209 4.8 4.8 0.00 0.00 0.00 54 999.6
20260504021222 8 152 4.8 3.2 0.00 0.00 0.00 54 999.8
20260504020655 8 234 1.6 11.3 0.00 0.00 0.00 54 999.8
20260504020151 8 155 3.2 3.2 0.00 0.00 0.00 54 999.8
20260504015651 8 150 1.6 3.2 0.00 0.00 0.00 54 999.8
20260504015122 8 149 0.0 3.2 0.00 0.00 0.00 52 999.8
20260504014554 8 180 0.0 0.0 0.00 0.00 0.00 52 999.8
20260504014053 9 208 1.6 0.0 0.00 0.00 0.00 51 999.8
20260504013553 9 173 4.8 8.0 0.00 0.00 0.00 51 999.8
20260504013051 9 170 0.0 0.0 0.00 0.00 0.00 51 999.8
20260504012524 9 158 0.0 0.0 0.00 0.00 0.00 49 999.9
20260504011954 10 168 4.8 3.2 0.00 0.00 0.00 48 999.9
20260504010951 10 234 9.7 9.7 0.00 0.00 0.00 48 999.8
20260504010452 10 215 4.8 8.0 0.00 0.00 0.00 48 999.7
20260504005951 10 196 1.6 4.8 0.00 0.00 0.00 47 999.7
20260504005422 10 167 0.0 3.2 0.00 0.00 0.00 47 999.7
20260504004927 10 201 8.0 8.0 0.00 0.00 0.00 45 999.6
20260504004424 10 210 11.3 8.0 0.00 0.00 0.00 45 999.6
20260504003854 10 191 4.8 3.2 0.00 0.00 0.00 45 999.6
20260504003321 10 288 11.3 8.0 0.00 0.00 0.00 44 999.6
20260504002825 10 225 16.1 11.3 0.00 0.00 0.00 43 999.4
20260504002322 10 222 19.3 14.5 0.00 0.00 0.00 43 999.4
20260504001753 10 161 12.9 20.9 0.00 0.00 0.00 43 999.4
20260504001255 10 245 8.0 4.8 0.00 0.00 0.00 41 999.3
20260504000721 11 224 4.8 3.2 0.00 0.00 0.00 41 999.3
20260504000151 11 311 11.3 8.0 0.00 0.00 0.00 40 999.4
20260503235621 11 244 14.5 12.9 0.00 0.00 0.00 40 999.4
20260503235052 11 140 3.2 3.2 0.00 0.00 0.00 39 999.3
20260503234023 12 243 22.5 16.1 0.00 0.00 0.00 38 999.2
20260503233522 12 233 20.9 16.1 0.00 0.00 0.00 37 999.2
20260503232951 12 237 20.9 16.1 0.00 0.00 0.00 37 999.2
20260503232451 12 270 9.7 3.2 0.00 0.00 0.00 38 999.2
20260503231922 12 313 9.7 12.9 0.00 0.00 0.00 38 999.2
20260503231352 12 191 20.9 14.5 0.00 0.00 0.00 37 999.2
20260503230854 12 234 19.3 20.9 0.00 0.00 0.00 37 999.2
20260503230351 12 214 8.0 12.9 0.00 0.00 0.00 37 999.2
20260503225854 12 236 14.5 12.9 0.00 0.00 0.00 37 999.2
20260503225324 12 236 19.3 16.1 0.00 0.00 0.00 36 999.2
20260503224753 12 250 19.3 12.9 0.00 0.00 0.00 36 999.2
20260503224251 12 249 16.1 16.1 0.00 0.00 0.00 36 999.2
20260503223753 13 199 20.9 11.3 0.00 0.00 0.00 35 999.2
20260503223253 13 188 24.1 19.3 0.00 0.00 0.00 35 999.2
20260503222752 13 269 20.9 14.5 0.00 0.00 0.00 36 999.3
20260503222222 13 260 22.5 22.5 0.00 0.00 0.00 37 999.3
20260503221651 12 303 20.9 14.5 0.00 0.00 0.00 36 999.3
20260503221153 12 303 25.7 16.1 0.00 0.00 0.00 37 999.3
20260503220622 12 234 11.3 11.3 0.00 0.00 0.00 37 999.3
20260503220123 12 257 20.9 14.5 0.00 0.00 0.00 37 999.3
20260503215622 12 242 12.9 16.1 0.00 0.00 0.00 37 999.3
20260503215054 12 252 27.4 25.7 0.00 0.00 0.00 37 999.3
20260503214555 12 228 22.5 16.1 0.00 0.00 0.00 37 999.3
20260503214059 12 248 14.5 12.9 0.00 0.00 0.00 38 999.3
20260503213525 12 230 35.4 32.2 0.00 0.00 0.00 37 999.3
20260503213023 12 285 16.1 14.5 0.00 0.00 0.00 37 999.3
20260503212456 12 237 16.1 16.1 0.00 0.00 0.00 38 999.4
20260503211952 12 248 24.1 16.1 0.00 0.00 0.00 38 999.4
20260503211423 12 225 20.9 14.5 0.00 0.00 0.00 37 999.4
20260503210851 12 233 19.3 16.1 0.00 0.00 0.00 38 999.4
20260503210353 12 240 25.7 25.7 0.00 0.00 0.00 38 999.5
20260503205252 13 284 22.5 24.1 0.00 0.00 0.00 36 999.5
20260503204751 13 293 27.4 25.7 0.00 0.00 0.00 35 999.5
20260503204251 13 258 27.4 25.7 0.00 0.00 0.00 35 999.5
20260503203721 13 268 27.4 25.7 0.00 0.00 0.00 37 999.5
20260503203156 13 265 19.3 12.9 0.00 0.00 0.00 38 999.5
20260503202626 12 248 22.5 22.5 0.00 0.00 0.00 39 999.6
20260503201024 12 259 9.7 8.0 0.00 0.00 0.00 40 999.8
20260503200451 12 233 11.3 11.3 0.00 0.00 0.00 40 999.9
20260503195424 12 245 40.2 32.2 0.00 0.00 0.00 39 999.9
20260503194853 12 300 22.5 16.1 0.00 0.00 0.00 39 1000.1
20260503194322 12 254 16.1 16.1 0.00 0.00 0.00 39 1000.1
20260503193829 12 255 32.2 22.5 0.00 0.00 0.00 39 1000.2
20260503193257 12 227 22.5 20.9 0.00 0.00 0.00 39 1000.2
20260503192751 11 270 11.3 8.0 0.00 0.00 0.00 42 1000.4
20260503192225 11 290 11.3 8.0 0.00 0.00 0.00 42 1000.4
20260503191724 11 261 19.3 16.1 0.00 0.00 0.00 40 1000.4
20260503191152 11 19 12.9 12.9 0.00 0.00 0.00 42 1000.6
20260503190653 11 263 19.3 11.3 0.00 0.08 0.00 42 1000.6
20260503190152 11 244 12.9 12.9 0.00 0.13 0.00 42 1000.6
20260503185653 12 9 8.0 8.0 0.00 0.20 0.00 43 1000.6
20260503185123 11 25 14.5 12.9 0.00 0.30 0.00 43 1000.7
20260503184623 12 322 19.3 14.5 0.00 0.36 0.00 42 1000.7
20260503184124 12 272 20.9 16.1 0.00 0.36 0.00 41 1000.7
20260503183620 11 279 16.1 14.5 0.00 0.36 0.00 42 1001.0
20260503183122 11 259 14.5 12.9 0.00 0.36 0.00 45 1001.0
20260503182624 10 298 20.9 22.5 0.00 0.36 0.00 46 1001.1
20260503182122 11 237 24.1 20.9 0.00 0.36 0.00 45 1001.1
20260503181621 11 314 25.7 20.9 0.00 0.36 0.00 43 1001.2
20260503181051 11 202 22.5 14.5 0.00 0.36 0.00 45 1001.2
20260503180521 11 232 32.2 25.7 0.00 0.36 0.00 45 1001.2
20260503180022 11 285 16.1 25.7 0.00 0.36 0.00 45 1001.1
20260503175454 11 239 22.5 22.5 0.00 0.36 0.00 44 1001.1
20260503174921 11 247 20.9 11.3 0.00 0.36 0.00 42 1001.2
20260503174420 12 275 19.3 16.1 0.00 0.36 0.00 42 1001.2
20260503173925 11 259 29.0 25.7 0.00 0.36 0.00 42 1001.4
20260503173423 11 221 32.2 16.1 0.00 0.36 0.00 43 1001.4
20260503172920 11 251 29.0 32.2 0.00 0.36 0.00 46 1001.4
20260503172350 10 206 19.3 22.5 0.00 0.36 0.00 47 1001.5
20260503171850 10 276 19.3 27.4 0.00 0.36 0.00 47 1001.5
20260503171322 10 232 22.5 12.9 0.00 0.36 0.00 48 1001.7
20260503170821 10 289 19.3 16.1 0.00 0.36 0.00 47 1001.7
20260503170322 10 256 20.9 16.1 0.00 0.36 0.00 46 1001.7
20260503160150 10 295 11.3 20.9 0.00 0.36 0.00 48 1002.6
20260503150921 11 302 12.9 9.7 0.00 0.36 0.00 45 1003.1
20260503150353 11 284 16.1 16.1 0.00 0.36 0.00 45 1003.1
20260503130750 8 147 1.6 3.2 0.00 0.46 0.00 57 1003.9
20260503130224 7 87 8.0 8.0 0.00 0.48 0.00 60 1003.9
20260503110821 5 243 0.0 0.0 0.00 0.61 0.00 84 1003.9
20260503110250 5 236 0.0 0.0 0.00 0.61 0.00 83 1003.7